Temp
21 21 20 20 20 20 20 20 20 20 19 19 19 18 17 17 16 15 15 14 14 13 13 12 12 12 12 11 11 10 9 7 6 8 8 9 9 9 9 9 9 9 9
22 21 21 21 20 20 20 21 21 20 19 19 18 18 17 17 16 15 15 14 14 13 13 12 12 12 12 11 11 10 10 9 7 7 8 8 9 9 9 8 9 9 9
21 21 20 20 20 20 21 21 21 20 20 19 18 18 17 17 16 16 15 15 14 13 13 12 12 12 11 11 10 10 10 9 8 7 6 8 8 8 8 8 8 8 8
21 20 20 21 21 21 22 21 21 20 20 19 18 17 17 17 16 16 15 14 14 13 13 12 12 11 11 10 10 9 9 9 9 8 6 6 7 8 7 7 7 7 8
20 20 21 21 21 21 21 21 21 20 20 19 18 17 17 16 16 15 15 14 14 13 13 12 12 11 10 10 9 9 9 9 8 7 6 6 6 7 7 7 6 7 7
20 21 21 21 21 21 21 21 20 20 19 19 18 17 16 16 15 15 14 14 13 12 12 12 11 11 10 10 10 10 9 9 8 7 7 6 6 7 7 7 6 5 5
20 21 20 21 21 21 21 20 20 19 19 19 18 17 16 15 15 14 14 13 12 12 11 11 11 10 10 10 10 10 10 9 9 7 7 7 6 7 6 6 6 4 5
20 20 20 20 20 20 20 20 19 19 19 18 18 17 16 15 14 14 13 13 12 11 11 10 9 10 9 9 9 9 9 8 8 8 7 7 6 6 6 6 6 5 5
19 19 19 20 19 19 19 19 19 18 18 18 17 16 15 15 14 13 13 12 11 11 10 10 9 9 8 8 8 8 8 7 7 7 7 6 6 6 6 5 4 3 4
19 20 19 20 19 19 20 19 19 18 18 17 16 16 15 14 13 12 12 11 11 10 10 9 9 8 7 7 7 6 6 6 6 6 6 6 5 5 4 4 3 2 1
22 20 20 20 20 20 19 19 19 18 17 16 15 15 14 14 13 12 12 11 10 10 9 9 8 7 7 7 6 6 6 5 5 5 4 4 3 3 3 3 3 2 1
20 20 20 20 19 19 19 19 18 17 16 15 14 14 13 13 12 12 11 10 9 9 8 7 7 7 7 6 6 6 5 5 4 4 3 2 2 2 1 1 2 1 1
19 19 19 19 18 18 17 17 16 15 15 14 13 12 12 12 11 11 10 9 8 8 7 7 6 6 6 5 5 5 4 4 3 2 1 1 1 1 1 1 1 1 1
19 18 17 17 16 16 16 17 16 14 14 13 12 11 12 11 11 10 9 8 8 7 7 6 5 5 4 4 4 4 3 2 2 1 1 0 0 0 -0 0 0 -1 -2
17 17 16 15 15 15 16 16 16 16 16 14 13 13 11 10 10 10 9 8 7 7 5 5 4 4 4 3 3 3 2 2 1 1 0 -0 -0 -0 -1 -1 -1 -1 -1
15 14 14 14 14 14 14 13 14 15 14 13 13 12 11 11 10 9 8 7 6 5 4 4 3 3 3 3 2 2 2 1 0 0 -0 -0 -1 -1 -1 -1 -2 -2 -2
15 14 14 13 12 13 12 12 10 11 11 11 11 10 10 10 8 7 7 6 5 4 4 4 3 3 3 2 2 1 1 0 -0 -0 -1 -1 -1 -1 -2 -2 -2 -2 -2
15 15 14 13 13 12 12 12 12 10 8 9 9 9 9 8 7 7 6 5 4 4 4 4 3 3 3 2 2 1 0 -0 -1 -1 -1 -1 -1 -1 -2 -2 -3 -2 -2
15 14 13 13 13 13 13 12 11 10 9 9 8 8 8 7 7 6 5 5 5 4 4 3 3 3 3 2 2 1 0 -1 -1 -1 -1 -1 -1 -1 -3 -3 -3 -2 -2
14 14 13 13 12 12 11 11 9 9 8 8 8 8 7 6 5 5 5 5 4 4 4 3 3 3 3 2 1 1 -0 -1 -1 -1 -1 -1 -1 -1 -2 -2 -3 -3 -3
13 12 13 12 11 11 10 9 9 8 7 7 7 8 7 7 6 6 5 5 5 4 4 4 3 3 2 2 1 1 -0 -1 -1 -1 -1 -2 -2 -2 -2 -3 -3 -3 -3
13 12 11 11 10 9 9 9 8 7 7 7 7 6 6 6 6 6 5 5 5 4 4 4 3 3 2 2 1 1 -0 -1 -1 -1 -1 -1 -2 -2 -3 -3 -3 -3 -3
12 11 10 10 9 8 7 7 7 6 6 6 6 6 6 5 5 5 5 5 5 4 4 3 3 3 2 2 1 1 -0 -0 -1 -1 -1 -2 -2 -2 -3 -3 -3 -3 -3
10 9 9 8 7 7 6 6 6 6 6 6 5 5 5 5 5 5 5 4 4 4 3 3 3 2 2 2 1 1 0 -0 -1 -1 -1 -1 -2 -2 -3 -3 -3 -3 -3
8 7 7 6 6 6 5 5 5 5 5 5 5 5 5 4 4 4 4 3 3 3 3 2 2 2 2 1 1 1 0 -0 -1 -1 -2 -2 -2 -2 -3 -3 -3 -3 -3
7 7 6 6 5 5 5 4 4 4 4 4 4 4 3 3 3 3 2 2 2 2 2 2 2 2 2 2 1 1 0 -0 -1 -1 -2 -2 -2 -3 -3 -3 -3 -3 -2
Height
777 781 784 786 789 792 794 797 798 801 802 803 803 803 803 803 803 803 803 803 802 801 801 800 798 798 795 795 795 793 790 791 787 774 776 776 772 770 770 769 767 765 762
770 774 777 780 784 787 788 791 794 796 799 799 799 799 799 799 799 799 799 799 799 798 797 796 794 794 791 790 788 786 786 784 784 775 774 770 768 767 766 765 763 762 759
764 768 771 774 777 779 781 785 789 792 794 794 795 795 794 794 794 794 795 795 794 793 792 792 790 789 786 783 783 782 780 778 776 774 769 767 763 762 760 757 756 754 753
758 762 764 766 769 772 775 780 783 786 788 790 790 791 791 790 790 790 790 790 790 789 789 788 786 785 782 780 779 777 776 774 772 769 765 762 760 757 756 753 749 747 745
753 755 756 759 763 767 770 774 778 780 783 785 786 787 787 786 786 786 786 786 786 786 785 785 783 780 779 777 775 773 771 769 766 764 761 758 756 753 752 752 748 744 740
744 746 750 753 757 760 764 768 771 774 777 779 780 782 783 782 782 782 782 782 782 781 780 780 778 777 775 773 771 770 769 765 764 763 759 756 753 753 748 745 743 743 737
736 738 742 747 749 752 756 761 764 768 771 773 775 777 777 778 778 778 778 778 778 778 777 775 774 773 771 770 768 765 763 762 760 758 755 753 750 748 746 743 739 736 735
728 730 734 738 742 746 750 753 757 761 765 767 770 771 772 773 774 774 774 773 774 773 773 772 771 770 769 766 765 765 763 761 759 755 752 748 746 743 740 737 735 734 728
717 720 722 728 734 738 742 745 750 754 758 761 764 766 767 768 770 770 769 769 770 770 769 769 768 767 765 765 764 760 758 757 754 752 749 747 743 742 739 735 734 732 729
706 706 712 718 723 728 734 738 744 749 752 756 758 760 762 764 765 766 764 765 767 765 765 765 765 765 765 761 758 757 754 750 747 746 747 744 743 738 736 735 735 730 728
693 699 703 706 711 717 725 731 738 743 748 750 752 754 757 759 761 760 759 761 762 762 762 762 762 761 757 756 755 752 750 748 748 746 745 743 742 740 737 733 732 731 725
687 690 693 697 702 708 715 722 730 736 740 744 747 749 752 754 755 755 755 757 758 758 758 757 755 754 754 752 750 751 750 749 748 745 741 738 735 733 732 728 727 727 725
681 683 686 690 696 701 707 714 722 729 734 738 740 743 746 748 750 750 752 754 754 753 752 752 752 751 749 750 749 748 748 745 743 742 740 735 732 730 729 726 722 720 718
675 677 680 684 689 695 701 707 713 720 726 730 734 737 740 742 744 745 748 749 749 749 750 749 749 749 749 748 748 745 740 741 741 738 735 732 731 729 728 725 721 717 714
670 672 675 679 683 689 695 700 706 712 717 722 725 729 733 737 739 741 742 745 746 746 746 746 745 745 745 744 741 741 740 739 739 738 734 732 727 724 724 722 721 716 713
668 670 672 675 680 684 691 698 705 710 714 719 722 726 730 732 733 736 740 741 741 741 740 741 742 743 743 743 741 741 740 739 738 735 732 728 724 723 721 717 717 715 711
664 666 669 672 675 680 686 692 699 707 712 716 720 723 726 728 731 733 735 736 736 737 738 739 739 739 739 739 738 738 734 733 733 730 728 725 724 722 719 716 714 713 710
661 663 665 667 671 676 682 688 695 700 706 712 717 720 723 724 727 730 732 734 735 735 735 735 735 736 734 734 734 736 735 732 730 728 723 721 718 717 717 714 711 709 705
657 659 662 665 669 674 681 687 693 698 703 708 713 715 717 720 724 727 728 729 730 732 732 733 731 731 731 731 730 730 730 728 725 724 721 717 717 714 712 711 709 706 702
652 655 659 664 669 675 680 685 690 694 699 702 705 709 714 718 720 721 722 722 724 724 727 728 726 726 726 726 725 725 724 723 722 719 718 716 713 712 708 705 705 704 699
649 652 656 661 665 669 674 679 684 689 694 699 703 706 709 712 714 717 719 721 720 719 719 721 719 717 718 720 720 721 718 716 717 716 714 711 710 708 704 702 698 698 695
644 649 653 657 663 668 673 678 683 687 691 694 699 703 706 709 712 715 715 717 717 718 716 718 717 717 715 715 715 716 715 712 711 708 706 708 708 705 700 697 694 692 690
639 644 650 656 662 667 673 677 681 685 689 693 697 701 704 706 710 711 713 714 712 714 714 714 713 710 710 710 712 712 711 709 708 707 706 704 703 701 698 694 690 685 684
635 641 647 653 660 667 672 677 680 684 688 691 694 696 700 704 705 707 709 708 708 709 710 710 709 708 706 705 705 705 703 702 701 702 699 696 697 695 693 690 687 682 678
634 641 647 653 659 665 672 675 679 681 684 689 693 695 697 699 701 703 703 705 705 705 702 702 703 703 702 701 699 699 698 696 694 694 693 691 689 687 686 683 681 677 673
632 639 646 653 659 666 670 674 677 680 684 687 690 695 695 696 696 697 698 699 701 697 696 698 698 697 697 695 694 692 691 689 689 687 685 685 684 682 679 677 674 671 667
Wind_Speed
36 36 35 33 31 28 26 23 20 15 13 11 11 11 12 12 11 13 14 15 16 17 17 19 21 21 24 25 25 26 28 25 13 30 26 31 32 34 32 30 28 27 26
37 36 36 34 30 29 27 24 20 17 13 12 12 14 13 13 12 12 13 14 15 17 17 18 21 21 24 24 25 27 27 28 24 23 25 29 33 32 31 30 29 27 27
38 37 36 35 33 31 29 26 21 18 15 14 14 14 13 12 12 12 13 14 15 16 16 17 20 20 23 24 25 25 26 26 26 24 23 27 29 29 26 27 27 25 24
38 38 38 38 36 34 31 27 23 20 16 14 14 13 13 11 11 10 11 12 14 15 14 16 17 19 22 23 23 22 22 23 23 25 23 24 26 27 26 25 27 24 25
38 38 41 40 38 35 33 30 26 22 19 15 14 13 12 12 10 9 10 11 13 14 14 15 16 17 17 16 17 19 19 21 22 23 20 19 23 22 23 25 24 27 28
40 42 42 40 39 37 36 33 29 25 21 17 15 14 13 12 10 9 10 11 12 12 15 16 15 14 13 14 15 16 16 18 19 19 19 14 21 21 24 25 25 20 5
40 42 42 42 41 40 38 35 32 29 24 19 16 15 13 12 10 10 9 10 10 11 13 15 15 12 13 14 14 14 14 14 14 15 18 20 21 23 25 26 25 19 19
40 39 41 43 43 41 40 39 36 31 26 21 17 15 13 12 11 10 9 8 9 10 11 10 11 13 12 12 12 14 16 17 17 18 17 17 17 19 19 20 21 23 21
37 40 42 43 42 42 43 43 38 32 27 22 18 15 14 12 11 10 8 7 8 9 8 7 9 9 7 9 12 15 18 19 18 13 12 13 15 17 15 16 16 16 15
38 44 41 45 44 43 45 43 39 33 28 20 18 15 13 12 11 11 8 7 8 8 5 5 6 7 10 12 13 15 16 18 14 14 13 15 15 12 13 14 18 16 15
46 37 42 46 46 47 45 42 38 31 23 20 18 14 14 13 12 11 9 10 9 7 6 7 8 9 12 16 16 15 13 11 11 12 14 15 14 16 19 19 19 20 21
36 39 42 44 43 43 44 41 35 29 25 21 17 15 14 13 13 12 12 12 9 7 7 8 10 13 15 13 10 7 6 9 11 12 12 13 16 18 19 20 20 22 22
31 37 39 39 38 39 39 39 33 29 26 22 19 17 14 14 13 13 14 13 10 9 9 9 11 12 9 3 3 4 7 9 9 8 10 13 16 17 20 21 20 23 26
28 32 34 34 34 35 35 39 36 31 26 23 20 18 17 15 15 15 16 16 13 10 9 8 8 7 3 5 5 6 6 4 5 9 10 14 15 18 22 21 22 27 23
25 28 29 30 32 33 36 38 35 31 29 26 24 21 19 18 17 16 17 15 11 8 6 8 7 4 5 6 6 6 6 5 10 10 11 14 15 17 21 20 22 24 18
21 23 26 28 29 33 33 26 23 21 19 17 14 16 16 13 13 14 14 12 9 6 6 7 7 6 7 8 8 8 8 9 11 11 12 13 14 17 19 18 21 18 16
25 25 26 29 31 32 31 28 21 16 14 15 13 13 12 10 11 13 13 11 8 6 7 7 8 9 9 9 9 10 10 11 12 11 12 13 15 16 17 17 15 15 16
26 27 30 31 31 31 30 29 27 25 20 17 16 14 12 11 12 12 11 9 7 8 9 9 9 9 10 12 12 12 12 12 12 12 12 14 14 16 18 14 14 15 16
27 27 29 31 31 31 28 24 22 21 20 17 14 16 15 14 13 12 11 11 9 10 11 12 12 12 12 12 13 13 12 12 10 13 12 13 16 16 16 15 15 16 19
28 29 30 29 26 24 23 23 22 20 19 19 19 17 16 16 16 17 15 13 12 12 12 12 12 12 13 14 14 14 14 13 13 12 12 13 15 16 16 15 17 16 17
28 25 28 27 28 28 27 26 24 23 19 17 16 15 17 18 17 15 13 12 11 10 10 12 11 12 13 14 16 16 15 14 14 12 14 15 15 16 17 18 17 19 19
29 28 28 29 27 25 24 22 20 19 18 16 14 13 12 13 11 11 12 11 9 10 10 12 12 13 13 15 16 18 17 17 15 14 16 17 18 19 19 18 18 18 19
31 30 28 25 25 23 20 19 19 17 15 13 12 10 11 11 10 10 11 10 10 11 11 12 14 14 14 14 16 18 18 19 18 16 18 18 20 20 19 20 19 18 19
31 31 29 26 23 21 20 18 16 14 12 11 10 9 8 7 7 8 9 9 10 10 11 12 14 15 15 15 16 17 19 19 18 19 19 20 21 22 22 22 21 21 20
28 26 25 24 22 21 18 16 14 13 11 8 8 6 6 7 6 7 7 9 10 11 11 12 13 15 15 16 17 17 17 17 18 18 20 21 22 22 23 24 24 22 21
27 25 24 22 20 19 17 15 12 10 9 6 4 4 4 3 3 4 5 6 8 9 10 11 14 15 17 17 18 18 17 17 18 18 18 20 23 22 21 23 24 24 22
Wind_Direction
222 224 227 230 232 236 240 243 242 247 253 265 277 280 282 284 286 286 289 289 286 291 293 293 292 293 291 291 290 285 279 266 255 281 287 297 298 301 307 308 308 307 306
222 224 227 230 230 232 234 233 231 238 247 260 268 272 273 276 280 281 285 289 291 294 297 294 294 300 298 298 293 290 290 288 266 279 292 294 300 307 309 310 311 308 307
223 225 227 229 228 227 227 225 225 233 242 252 261 265 268 272 273 277 283 287 290 293 297 298 302 303 300 301 300 299 296 296 288 274 285 298 300 308 312 314 312 308 308
225 224 226 226 224 223 222 221 221 226 236 245 257 264 266 267 268 275 279 284 289 294 301 299 302 301 299 303 304 303 303 298 296 289 282 286 296 306 312 312 310 311 308
225 225 227 226 225 222 221 219 218 222 229 240 250 256 258 258 262 268 274 281 287 294 298 303 304 303 306 305 299 304 305 301 294 288 278 279 289 299 309 316 304 309 308
222 225 227 226 225 222 220 217 217 220 225 233 241 247 250 255 257 258 265 275 283 290 300 304 307 312 313 308 305 300 302 300 300 293 290 277 288 300 314 310 302 297 295
222 224 227 227 225 222 219 216 216 218 222 229 234 239 245 252 250 251 258 267 276 292 299 304 312 319 316 315 310 305 306 311 309 309 301 301 304 313 315 308 301 286 279
223 222 225 227 228 224 219 217 216 216 220 225 229 235 242 248 245 251 250 261 282 289 293 302 309 315 323 315 312 308 311 315 321 317 311 309 310 317 318 315 311 302 294
218 222 223 224 225 224 221 219 216 214 216 222 226 229 238 242 242 243 241 258 275 287 288 297 303 313 316 328 321 310 307 313 317 314 311 312 316 324 329 330 344 338 320
220 224 221 225 222 222 224 220 215 214 218 218 222 228 235 240 238 234 230 243 266 279 282 299 303 299 311 315 311 312 305 312 315 318 313 313 321 321 327 340 342 335 324
231 223 224 225 223 226 223 220 214 212 212 212 218 224 230 236 234 229 225 238 255 261 284 297 308 307 300 305 306 293 293 306 317 324 324 328 335 335 333 329 326 322 314
229 226 225 226 220 221 221 217 208 206 206 208 214 222 227 229 227 223 221 235 243 251 281 291 293 303 313 308 300 298 279 300 320 328 337 346 344 337 332 326 320 318 313
230 225 224 224 219 218 212 206 195 199 203 205 210 218 221 221 220 213 216 227 230 245 266 280 298 309 299 280 292 301 316 323 324 334 340 338 335 331 330 332 333 329 320
227 223 220 217 213 213 209 201 195 195 200 207 209 214 217 215 211 206 213 218 228 250 270 285 310 313 278 280 286 298 310 313 314 319 323 332 341 344 338 339 333 336 324
226 222 215 212 204 201 199 197 199 206 209 209 215 216 208 212 217 219 217 220 236 252 268 293 300 282 274 278 275 291 287 280 306 311 326 335 342 341 338 340 332 334 316
219 213 207 200 194 188 187 186 198 208 210 213 218 218 213 226 218 213 211 225 233 238 260 277 279 276 276 281 285 290 271 286 306 309 317 327 332 333 331 332 334 327 321
221 213 204 195 186 183 183 178 171 183 192 204 207 209 213 219 206 204 211 221 227 235 250 269 274 271 276 272 275 266 264 287 298 299 309 323 324 325 325 324 325 323 318
227 220 206 194 188 185 185 187 188 180 180 191 202 206 207 205 203 208 214 218 228 238 249 260 269 276 272 264 263 265 280 296 302 310 309 314 318 319 319 309 306 308 310
223 217 206 198 194 193 190 189 191 193 195 194 189 201 203 206 207 211 212 227 245 259 264 264 269 275 275 270 264 265 276 280 292 304 307 313 316 314 320 308 302 309 319
218 214 204 195 187 184 183 185 187 190 191 193 194 197 193 196 204 211 219 231 244 263 271 269 271 272 271 268 261 262 274 272 284 297 301 307 311 308 305 303 300 299 309
210 204 199 187 185 185 186 190 192 192 192 194 200 201 204 207 216 220 227 239 253 266 270 271 270 269 276 268 260 263 273 269 276 289 296 303 301 292 294 304 294 295 295
205 197 190 188 186 187 190 191 190 189 189 191 193 195 199 211 222 235 240 252 267 276 273 274 280 282 285 280 271 265 274 271 271 278 288 296 301 302 292 292 294 291 294
199 192 187 186 187 186 184 183 182 182 182 184 186 189 197 210 231 244 255 268 278 278 282 279 282 282 283 289 281 274 278 280 277 289 295 295 297 301 298 297 292 293 295
192 188 182 180 178 177 177 176 175 173 173 175 181 190 203 231 246 255 266 277 282 286 288 286 290 291 286 287 288 283 277 283 275 283 291 291 294 301 296 292 288 287 291
181 177 174 173 171 171 168 165 162 158 158 167 188 196 216 230 245 264 280 286 291 293 295 296 296 297 293 291 290 289 289 287 276 282 289 287 288 293 291 287 287 286 293
168 167 165 163 160 159 156 153 147 145 149 145 172 212 223 232 256 275 285 293 298 309 313 308 305 301 297 298 298 295 290 286 279 275 283 286 288 286 288 287 289 287 288